GFSSW_2pvu_pres_057.txt.gz
Presure
144 152 143 136 136 146 133 133 159 162 168 186 149 146 136 139 144 132 147 147 141 124 114 134 136 134 129 127 137 131 116 132 123 135 129 104 107 141 128 117 134 132 148 148 176
111 142 134 142 124 121 140 128 134 150 169 150 192 166 164 134 146 150 150 142 145 140 126 123 142 141 146 125 119 135 132 140 132 131 107 141 134 109 148 131 135 139 145 145 176
118 116 114 119 139 112 111 136 115 120 138 174 153 185 161 153 138 127 130 148 134 151 130 137 125 123 147 127 139 136 138 137 131 139 141 139 131 122 120 136 131 131 140 147 176
127 125 123 119 122 119 118 117 117 118 116 121 173 168 174 188 165 152 139 129 131 134 150 139 140 137 140 145 133 141 141 138 146 134 139 148 133 124 102 129 122 129 143 150 174
121 121 126 125 126 126 121 122 123 119 118 117 116 120 157 159 180 165 157 149 139 137 159 141 144 145 133 140 125 127 144 128 135 142 137 141 129 125 113 125 120 135 149 153 167
142 131 125 121 123 122 120 126 125 124 125 123 123 120 120 123 168 189 157 171 149 141 148 157 141 142 149 144 143 140 127 150 148 125 139 133 123 131 115 125 132 133 147 173 164
133 131 127 130 126 123 123 121 124 131 126 126 127 125 126 125 122 131 190 194 168 146 141 136 157 149 138 146 150 149 144 127 135 148 112 145 118 105 116 127 125 129 147 184 162
168 133 125 127 133 130 138 138 126 125 119 129 129 129 130 126 125 125 126 126 181 180 169 141 137 149 157 149 146 115 141 136 136 144 106 125 117 111 140 112 136 147 135 181 162
202 196 167 162 139 129 129 127 129 130 136 132 131 128 123 125 130 128 130 122 127 126 191 164 176 157 134 143 145 143 136 155 148 147 107 128 133 133 134 114 146 145 153 168 159
225 209 186 197 197 193 157 135 134 130 127 125 128 135 129 135 133 132 130 133 128 126 126 152 188 164 167 156 154 144 142 136 136 131 126 130 118 140 133 149 141 145 156 175 154
239 238 236 240 218 212 196 196 157 135 139 136 136 146 124 131 134 136 130 130 130 135 125 127 124 182 160 167 129 153 140 146 142 136 91 128 131 97 102 147 142 150 164 174 151
213 229 244 240 231 233 235 233 208 202 175 144 149 138 143 138 144 135 137 140 128 136 134 131 122 127 124 145 175 162 153 148 147 142 134 108 140 138 125 139 146 157 151 173 145
251 259 213 217 238 246 244 237 229 229 232 239 210 142 154 142 138 141 144 137 142 140 130 140 140 132 125 129 130 159 198 165 163 148 126 148 146 121 129 127 145 155 152 167 142
240 264 269 254 246 232 240 240 244 242 241 232 231 248 251 202 143 154 146 147 147 138 145 144 135 141 135 132 130 127 133 179 200 150 144 154 163 129 134 147 155 135 150 160 141
222 251 254 249 262 263 241 227 221 249 247 240 247 234 227 237 258 190 145 155 145 149 142 136 146 148 141 141 139 132 95 126 147 187 197 197 146 222 234 175 125 135 150 162 137
267 259 227 237 250 250 254 256 244 232 229 260 251 237 242 247 235 232 250 222 147 149 148 149 139 134 137 145 141 134 143 138 122 147 187 168 173 189 203 128 140 152 179 145 146
293 312 268 258 236 247 245 249 250 252 252 250 249 251 249 238 241 247 245 235 234 212 144 147 155 155 107 151 148 141 140 139 93 115 127 157 160 166 178 189 189 222 215 143 142
257 268 294 339 262 256 241 245 239 245 247 242 246 245 251 259 251 230 240 247 240 244 232 223 150 150 93 142 118 137 142 141 144 103 109 128 143 156 164 178 182 197 180 147 136
260 261 261 276 304 302 254 250 246 244 246 244 245 244 247 249 251 254 251 253 247 248 253 241 238 183 77 151 148 97 158 144 127 131 127 96 118 134 98 173 174 184 162 143 148
340 285 256 262 267 279 304 317 256 255 245 240 239 243 239 241 250 248 248 254 256 256 258 247 261 254 193 169 95 159 134 156 133 136 129 131 98 131 135 145 169 128 153 142 141
400 357 275 263 255 252 263 278 285 286 276 252 277 267 260 264 261 240 239 250 253 253 259 262 258 253 256 129 141 152 114 151 164 145 142 113 121 97 128 145 133 126 138 150 143
345 327 349 277 256 251 254 243 255 257 262 262 265 266 268 274 280 282 283 333 305 305 348 257 262 272 260 252 250 155 167 178 154 156 145 147 126 126 127 135 142 149 122 144 137
326 322 323 322 312 268 253 247 248 258 257 277 284 288 290 290 291 292 296 298 308 311 315 333 340 353 241 235 112 247 220 99 108 138 107 135 130 142 141 144 146 141 139 144 103
286 284 284 287 283 281 277 275 275 272 268 267 268 266 265 270 274 274 281 290 289 287 300 301 306 327 333 321 127 225 239 82 207 188 111 117 145 88 98 111 90 117 125 131 141
262 269 267 262 264 265 263 262 259 256 254 259 264 265 269 269 271 272 275 280 281 287 287 288 291 294 304 316 279 360 102 130 226 136 141 101 103 133 131 140 150 105 140 80 149
257 256 251 255 246 244 244 242 247 254 248 276 281 272 337 356 426 408 438 308 305 277 291 284 281 290 294 294 311 337 98 152 226 228 229 275 130 127 144 126 132 124 119 143 136
254 258 256 245 251 249 252 259 258 258 261 260 265 332 331 327 339 352 399 413 422 352 303 280 282 280 288 149 287 308 328 355 365 164 219 172 137 95 92 154 148 155 156 152 155

GFSSW_2pvu_pres_060.txt.gz
Presure
132 137 136 180 137 152 138 132 143 164 185 160 141 149 137 129 133 130 121 136 131 146 141 131 139 134 136 146 136 132 139 141 126 124 130 120 126 123 127 114 134 143 138 137 163
115 122 149 141 145 139 168 139 132 132 166 148 162 150 136 144 138 144 152 135 137 132 138 141 135 140 133 133 135 127 141 141 130 140 125 131 138 106 173 115 134 131 138 143 156
125 133 112 122 113 140 125 116 123 145 137 177 181 164 170 138 141 137 140 147 135 121 125 134 134 123 134 132 120 140 113 139 137 145 133 131 140 112 117 112 148 128 139 144 158
126 124 119 112 114 115 114 115 115 114 116 130 175 176 200 165 149 137 137 135 150 144 146 145 149 132 139 118 113 147 138 135 145 136 143 100 127 113 106 131 116 132 136 143 155
126 127 127 127 124 123 120 119 117 126 119 119 131 131 177 170 179 163 156 140 130 130 134 137 152 149 133 141 139 136 150 138 144 129 139 131 138 110 135 123 128 131 135 133 155
132 124 134 132 119 120 126 122 124 123 112 122 121 117 117 125 145 190 172 173 154 130 137 130 134 142 143 139 145 146 132 152 134 146 148 122 132 102 125 111 128 124 132 144 152
135 134 135 142 129 133 125 124 124 120 120 127 125 125 126 120 120 125 194 195 170 160 160 145 135 137 141 150 138 125 147 135 124 137 102 127 115 117 126 125 124 121 134 146 152
135 136 160 131 128 128 127 132 133 127 125 125 124 128 126 129 127 120 123 126 193 206 121 167 154 141 148 147 158 142 126 98 152 146 145 138 119 139 139 114 115 133 140 139 152
161 133 137 140 181 182 136 130 135 137 133 126 125 120 119 130 129 127 125 126 127 153 198 190 149 167 145 151 143 144 153 146 144 148 142 127 115 137 128 128 134 136 143 133 150
233 235 211 206 189 135 192 136 132 125 125 131 140 133 127 130 130 122 126 131 126 126 126 185 194 176 139 164 150 147 145 135 146 146 139 119 140 119 119 106 118 129 138 135 144
241 245 231 237 226 231 215 206 142 136 133 134 134 135 144 138 136 135 132 128 125 131 132 127 126 194 203 159 165 172 146 140 137 140 143 150 111 120 131 106 119 133 147 140 148
264 251 244 232 229 238 238 249 171 198 201 160 142 134 134 136 133 133 138 140 126 132 130 132 123 131 131 187 189 172 161 171 128 143 142 130 110 119 138 125 106 136 144 144 149
259 234 248 265 244 229 228 233 240 244 234 209 199 161 138 136 142 139 137 134 130 137 131 133 134 139 130 128 131 191 199 169 166 145 139 126 101 115 106 138 137 119 144 145 145
308 279 256 238 260 231 239 215 216 230 248 241 242 221 192 143 144 143 138 146 146 142 140 140 134 133 134 132 134 130 140 196 193 146 150 150 136 133 108 124 150 131 153 139 139
260 285 306 271 240 250 247 230 227 241 243 236 253 236 232 230 184 144 143 145 150 141 149 145 147 145 131 142 141 131 127 134 174 189 202 146 139 161 111 121 126 132 201 145 134
273 275 275 300 286 263 223 246 242 228 258 253 238 232 248 247 236 237 211 153 152 144 149 150 147 150 147 147 137 146 134 136 131 147 187 185 194 148 137 140 129 163 222 155 132
308 277 272 279 289 310 260 240 220 249 257 272 271 245 239 231 247 239 234 230 225 153 152 154 153 149 148 153 148 145 142 140 134 124 132 178 182 194 166 143 155 115 138 126 149
321 319 283 260 274 276 317 267 253 247 239 225 252 256 256 244 239 235 252 243 246 232 227 156 158 158 159 140 150 111 150 145 141 126 87 134 123 178 185 186 196 102 144 177 138
396 381 308 287 257 260 265 327 279 259 249 241 213 248 252 257 257 248 222 229 257 247 242 231 240 161 155 152 157 148 113 136 136 95 118 124 132 146 184 183 191 132 133 124 148
413 373 341 303 279 245 252 255 293 320 264 250 247 234 242 247 247 254 250 256 258 260 256 243 251 234 195 166 157 159 115 155 141 139 129 117 126 121 137 172 175 185 202 203 183
346 349 352 338 293 270 244 259 250 271 301 313 255 250 243 237 239 243 245 252 251 256 250 256 266 243 250 241 199 166 163 162 164 145 147 136 117 129 116 118 143 163 190 176 162
338 338 339 337 304 294 255 249 257 241 256 274 289 293 251 248 249 244 238 249 251 254 252 249 256 265 257 266 247 127 97 175 171 157 150 139 137 133 96 124 130 96 160 176 144
293 295 304 309 312 310 260 249 251 243 248 242 254 264 273 279 281 281 265 257 249 246 249 250 250 258 253 267 261 246 222 104 83 177 114 155 128 132 132 122 115 123 163 168 182
272 272 269 272 282 285 284 281 264 247 246 247 249 245 245 254 260 262 268 273 282 282 292 279 268 255 257 258 263 271 245 248 225 144 174 137 103 109 111 139 134 120 127 162 164
271 261 258 258 255 262 263 261 262 261 263 264 267 269 271 274 277 280 288 294 303 302 305 285 279 295 306 289 265 270 273 263 182 230 87 165 167 121 146 120 128 142 144 141 136
283 268 258 264 254 253 250 251 253 258 256 261 261 265 268 269 270 282 285 290 296 300 300 296 299 303 311 315 322 338 269 267 267 258 250 249 87 172 172 141 140 135 140 147 128
284 281 278 268 260 259 254 256 258 253 258 266 272 281 282 289 287 308 334 347 356 391 422 301 298 291 292 297 302 319 339 356 293 271 277 189 142 116 163 155 123 135 155 146 162

GFSSW_2pvu_pres_063.txt.gz
Presure
136 141 138 136 159 141 141 131 139 157 178 176 144 140 136 132 128 129 145 137 147 141 129 133 133 138 127 140 142 119 138 135 140 141 108 141 135 129 134 140 123 139 139 133 150
128 144 147 138 139 175 141 145 128 133 172 183 164 171 143 137 145 141 155 123 126 132 128 141 131 138 127 143 121 140 113 142 149 133 115 107 134 135 133 128 132 132 138 141 137
118 113 120 116 153 143 168 143 156 133 134 178 186 153 144 148 147 140 136 136 121 125 111 132 136 142 140 142 139 151 144 150 170 148 131 147 142 104 130 133 126 129 121 139 148
126 122 120 123 121 112 145 165 146 128 143 135 176 187 159 154 143 150 143 135 144 149 150 135 131 134 125 116 129 112 135 150 138 131 117 123 116 159 120 115 123 134 125 141 147
131 125 123 121 126 124 122 114 120 120 115 143 119 155 174 153 160 153 148 141 135 141 149 148 131 125 149 134 143 109 135 146 115 119 135 121 102 153 102 155 113 128 133 139 140
151 152 132 127 127 127 129 126 125 120 119 119 121 121 127 183 187 168 162 160 152 136 141 141 146 113 139 147 141 120 131 135 126 124 129 136 137 137 125 111 150 127 132 132 129
143 143 141 130 143 130 125 124 117 125 127 125 123 115 123 123 122 184 196 169 163 149 145 133 135 153 152 138 134 144 133 149 144 130 118 143 127 129 139 135 142 126 133 118 140
205 172 120 134 134 140 131 132 136 128 124 127 125 125 129 115 122 120 123 197 162 174 182 153 153 136 138 136 135 125 143 142 127 144 125 135 132 137 125 110 136 129 136 134 140
233 217 160 167 157 136 139 138 135 133 131 132 125 126 128 127 129 126 129 124 127 191 195 179 168 144 149 150 139 146 144 142 134 147 137 121 129 130 130 131 128 124 143 144 133
249 267 263 263 168 209 128 139 137 136 142 135 135 135 134 128 131 128 131 132 130 125 129 193 201 181 168 162 160 154 139 143 144 142 146 121 120 119 119 125 161 125 151 144 131
276 282 263 255 279 266 220 136 133 144 145 138 138 134 141 136 132 127 124 128 132 132 126 129 136 194 203 183 143 152 163 140 145 147 110 127 142 103 123 143 150 114 136 138 125
284 289 310 220 219 261 264 257 217 206 156 174 149 141 141 134 130 141 136 133 129 134 132 131 128 133 147 195 212 193 167 153 143 111 136 144 126 137 131 158 131 111 147 130 117
278 275 280 283 269 256 249 258 254 241 216 210 212 155 144 151 137 137 141 144 140 135 126 130 135 134 129 132 155 197 209 182 163 128 123 140 144 145 108 129 125 139 131 134 121
292 276 269 274 305 278 251 238 259 250 239 240 217 213 211 147 145 141 140 140 139 144 137 137 130 132 132 131 133 136 176 155 213 159 127 148 137 144 110 116 116 146 122 161 126
341 285 286 294 271 302 280 247 243 246 268 236 238 227 228 213 201 151 150 147 147 141 148 140 144 142 135 133 138 134 135 150 192 206 108 154 142 138 125 121 127 131 159 117 169
368 372 301 276 286 267 292 286 260 247 259 254 237 232 231 247 228 202 160 158 153 152 146 145 154 145 134 141 110 141 133 133 144 164 190 193 145 134 127 96 112 123 121 147 149
415 385 357 311 265 279 257 293 264 253 250 259 247 235 229 230 236 227 207 196 156 159 155 149 154 148 153 149 141 141 139 143 131 134 118 126 192 167 128 127 132 133 127 126 136
502 465 379 329 309 257 269 270 280 282 260 246 243 250 230 264 221 232 231 243 219 193 156 155 155 160 143 157 153 152 140 138 141 127 132 155 157 179 187 136 146 141 119 150 123
376 424 367 369 309 305 258 261 273 281 312 260 252 236 220 247 229 242 240 239 245 246 207 175 157 159 154 156 151 155 151 141 138 142 122 129 138 154 174 187 115 104 126 109 136
352 348 365 371 323 299 282 266 255 259 273 294 275 244 246 229 247 244 266 259 246 233 240 252 212 178 165 166 160 161 151 155 151 139 135 125 125 135 146 169 183 197 182 138 117
312 333 345 357 351 288 295 268 254 252 255 266 320 277 260 248 240 243 247 253 266 270 259 234 243 246 223 186 161 163 167 165 157 150 142 130 125 130 133 141 158 193 184 188 137
292 290 313 334 322 315 272 289 261 254 242 245 253 304 320 271 253 247 246 219 239 255 259 260 255 230 245 251 227 174 173 168 165 157 151 144 131 130 133 136 137 174 179 180 163
287 284 278 285 319 307 294 269 276 260 253 248 235 247 261 289 311 270 250 247 248 225 253 252 256 262 250 240 249 259 240 196 181 172 154 154 138 128 138 142 126 141 146 180 172
293 284 266 267 277 281 297 301 282 269 255 251 253 243 247 245 262 279 296 278 255 254 241 246 250 250 255 253 261 256 267 245 248 202 178 157 146 126 134 138 140 130 111 155 190
294 288 270 264 263 259 265 264 271 270 254 264 248 248 250 248 246 248 261 275 287 285 262 262 254 245 250 253 258 262 264 265 253 253 203 153 154 124 163 140 135 141 130 121 135
310 295 290 271 266 264 259 259 262 262 262 262 262 263 262 255 253 254 253 256 258 267 282 293 295 269 256 255 249 263 275 267 269 271 218 110 169 161 165 153 139 139 136 127 101
317 305 291 280 280 276 267 264 261 258 259 260 262 264 266 270 278 283 280 285 290 293 299 310 281 284 293 298 278 263 261 265 271 264 268 106 82 147 155 100 111 132 129 130 140

GFSSW_2pvu_pres_069.txt.gz
Presure
111 135 143 144 132 138 147 141 133 170 174 182 192 168 150 135 139 145 118 130 127 128 134 140 135 136 125 125 139 137 107 134 119 127 117 113 130 120 134 123 133 146 140 125 131
109 108 120 148 143 142 143 135 139 130 181 173 183 195 191 144 145 140 137 148 143 139 138 131 135 143 121 135 136 128 124 111 138 127 122 123 130 140 122 144 154 139 141 146 150
162 117 116 111 140 128 148 144 137 140 132 161 171 184 190 159 150 149 142 142 141 144 131 133 146 137 147 133 136 140 110 122 130 134 142 110 131 143 121 146 157 125 140 137 150
160 156 127 124 113 116 141 151 141 142 144 133 160 178 190 209 147 141 145 147 146 143 148 148 128 148 124 140 136 141 105 134 106 142 123 126 140 106 143 149 133 127 138 136 133
125 173 163 131 131 125 122 118 122 142 151 144 135 157 183 194 176 147 139 128 117 144 147 146 131 140 126 135 132 120 126 124 137 130 115 117 126 124 137 139 120 127 130 140 142
229 133 161 188 126 131 133 127 124 124 125 153 145 141 153 186 194 178 132 126 128 140 136 146 132 146 127 138 135 122 117 145 138 135 98 130 136 115 135 123 144 124 119 133 144
253 233 175 137 127 126 128 137 133 124 124 124 150 142 148 143 186 154 174 143 137 139 132 138 149 134 153 126 130 124 135 114 121 129 126 131 141 156 139 153 138 143 129 136 144
221 259 201 240 148 140 133 146 137 132 128 129 127 120 118 153 142 188 157 180 152 142 133 133 122 142 120 142 141 146 121 134 125 137 132 122 108 110 131 161 126 149 131 135 139
270 267 241 268 142 225 260 145 148 140 139 135 133 131 135 122 137 146 187 192 169 162 148 132 134 139 130 135 131 127 138 142 134 118 122 124 139 133 97 131 115 145 135 145 137
246 257 259 269 221 303 166 181 153 142 156 145 136 135 135 132 122 125 125 159 195 180 165 159 147 131 140 139 130 130 144 141 127 120 115 136 127 147 135 117 138 118 144 136 146
241 281 309 310 312 317 322 239 269 153 146 147 145 133 138 139 135 128 128 120 143 188 191 196 169 157 144 142 131 119 143 141 100 142 124 121 137 119 143 131 139 140 131 153 164
252 317 308 398 439 310 319 320 232 262 184 149 145 149 143 140 129 129 138 124 119 139 169 188 193 169 172 143 141 134 122 145 135 134 124 124 126 123 136 135 134 119 146 127 145
261 342 381 374 379 407 311 309 309 216 248 216 154 144 157 142 138 142 134 133 131 121 124 128 189 191 176 172 163 151 117 131 141 130 125 121 123 126 148 142 127 129 143 145 172
332 364 355 416 409 396 327 283 301 264 225 277 251 175 158 145 150 144 137 141 138 134 131 132 125 154 185 186 182 168 173 144 147 135 129 126 145 123 130 121 152 133 145 156 140
334 359 363 541 452 380 362 276 262 293 290 319 273 224 153 155 148 144 151 141 141 138 131 135 129 129 126 160 187 191 195 202 139 145 148 156 139 140 131 134 151 131 145 123 135
340 344 382 472 458 390 376 321 278 283 170 312 307 255 219 165 158 150 153 145 144 145 142 141 134 133 131 127 125 159 189 190 184 187 179 141 149 137 159 129 129 128 123 121 121
342 337 344 382 400 379 363 320 275 274 286 309 295 252 253 217 184 163 156 157 148 154 141 143 139 136 131 132 131 127 127 160 177 176 177 174 188 186 141 135 115 131 131 125 150
346 336 315 380 362 365 355 322 284 282 275 280 305 297 234 253 217 207 175 159 158 147 144 150 145 136 139 132 129 132 126 126 148 157 174 175 184 193 225 155 153 137 137 127 149
354 326 314 352 373 358 368 319 291 275 266 272 304 288 255 240 252 217 215 197 173 151 145 149 147 146 142 137 139 135 137 131 125 126 148 168 170 179 157 198 146 136 123 125 134
337 329 314 331 344 349 356 365 290 269 263 263 262 291 282 238 241 245 250 212 204 194 168 156 151 153 141 151 139 139 140 122 129 126 127 138 156 174 180 183 192 145 147 149 143
300 334 307 307 336 329 346 334 296 267 262 264 255 262 288 271 234 184 248 242 226 199 199 191 179 164 157 160 151 145 142 146 141 132 131 129 132 151 166 176 163 177 140 90 137
365 342 308 297 307 334 331 331 321 281 256 259 267 255 262 280 265 256 208 216 247 231 218 204 204 202 169 170 169 170 153 138 138 146 134 131 135 130 133 160 172 164 164 180 107
353 345 323 292 283 300 318 295 288 286 265 255 253 264 262 254 285 263 249 241 233 240 236 223 205 204 211 206 200 190 174 167 155 143 139 142 130 130 133 130 149 167 161 162 150
357 340 334 307 284 276 299 307 309 289 288 262 253 247 262 258 246 285 266 251 239 239 235 246 233 227 210 206 208 205 184 167 171 161 157 141 139 136 136 128 131 136 158 158 161
289 337 326 324 296 275 275 288 293 293 294 282 271 253 247 248 250 251 271 265 254 243 231 234 235 253 227 228 215 207 210 205 154 98 170 160 155 136 139 134 133 130 129 157 160
328 303 323 313 316 292 271 267 279 291 282 266 277 273 258 256 247 244 258 254 307 262 252 249 239 244 238 244 230 222 217 214 214 208 192 183 175 159 144 138 128 134 125 131 134
330 285 322 310 301 298 298 276 265 271 279 285 268 280 282 269 260 258 248 250 257 258 292 308 255 247 245 241 249 240 228 233 234 234 215 213 122 159 133 151 142 139 138 116 128

GFSSW_2pvu_pres_072.txt.gz
Presure
113 121 127 136 141 140 136 155 135 131 169 174 197 206 162 135 140 141 141 121 127 124 123 127 122 121 123 127 118 109 119 133 144 127 131 126 139 138 141 126 128 137 152 148 137
111 110 113 150 134 140 141 138 152 138 134 177 184 194 154 158 134 138 146 141 127 116 144 130 120 123 110 114 131 121 128 106 123 122 130 123 134 142 138 141 116 134 180 149 150
170 138 110 110 116 133 149 144 140 158 140 138 166 189 202 158 144 131 138 140 147 125 136 142 124 139 121 131 114 133 134 125 129 133 126 125 127 116 133 138 139 141 141 158 140
123 155 156 137 114 112 130 150 145 139 162 141 138 172 191 177 163 143 134 135 123 127 130 131 137 132 125 125 115 132 138 113 137 118 141 132 125 143 125 139 138 127 144 136 154
148 125 182 136 148 146 121 118 117 147 145 150 141 140 179 194 201 163 149 142 124 143 135 147 142 142 130 136 129 133 133 132 112 104 123 142 122 145 109 136 130 136 137 149 145
172 230 145 125 127 165 136 129 122 121 120 150 145 143 143 178 196 148 165 160 148 117 138 129 127 135 131 132 123 140 134 133 131 117 128 144 111 119 131 131 121 122 133 140 128
223 223 225 145 152 136 128 125 130 131 125 125 119 157 150 146 179 195 137 165 157 149 149 141 125 145 129 135 140 138 139 118 125 130 147 110 110 144 120 153 146 162 128 138 152
226 238 241 226 223 266 193 156 127 127 136 133 135 120 155 152 143 180 201 135 164 148 146 143 141 131 127 119 129 130 133 125 131 138 141 132 147 135 141 147 142 133 129 129 142
240 232 252 226 249 256 252 251 225 128 137 129 142 126 122 137 151 149 182 203 148 171 124 154 157 150 139 131 135 143 134 115 122 137 125 124 132 139 126 115 136 131 154 149 142
239 236 239 239 257 262 244 273 261 160 208 132 132 140 129 125 119 147 148 177 201 144 133 139 144 141 132 139 132 138 140 126 118 123 130 133 139 100 129 130 119 123 123 124 141
229 224 230 210 265 292 265 251 320 281 271 230 141 133 162 127 127 121 119 147 175 198 179 135 140 152 151 148 133 143 133 133 125 124 121 138 135 129 130 133 143 142 123 137 150
222 224 237 255 288 351 326 401 437 332 150 193 238 160 151 146 132 133 119 127 149 174 197 197 147 135 142 146 141 138 132 143 130 131 131 124 120 130 129 119 137 115 131 123 161
226 226 253 255 376 385 379 418 396 372 313 283 148 239 164 147 149 136 135 124 122 153 161 196 207 168 141 136 97 146 128 145 137 145 122 127 126 132 125 147 123 141 142 129 142
221 235 253 382 382 362 488 426 377 381 326 319 298 221 165 165 149 147 134 136 130 120 133 155 192 203 200 146 136 136 143 134 129 151 134 130 141 125 123 136 135 148 143 120 146
229 246 256 371 361 506 461 409 368 388 324 311 317 283 273 216 163 146 151 137 138 133 127 124 150 164 195 200 199 157 142 139 128 145 145 124 127 149 132 133 132 138 154 128 152
236 251 378 354 344 429 413 380 360 344 311 306 309 314 258 262 199 153 148 152 142 135 138 126 126 117 147 179 197 208 202 139 137 138 131 152 136 141 151 131 130 125 141 146 133
233 268 337 342 358 372 378 360 353 331 307 295 297 306 234 265 243 214 151 158 150 146 138 145 133 130 128 122 155 182 193 196 176 141 144 140 145 148 141 142 137 134 146 140 128
241 376 355 335 362 368 370 346 350 318 296 279 289 247 301 240 268 238 205 163 154 154 146 144 140 138 131 133 129 130 164 177 185 178 172 170 146 148 151 136 130 155 116 140 143
243 339 351 330 353 356 354 337 361 308 291 269 280 287 287 213 228 264 217 207 160 149 156 147 134 142 142 131 132 133 126 155 163 168 177 182 183 145 143 149 145 132 128 127 126
244 367 342 328 321 337 348 343 366 301 280 260 262 271 276 305 215 230 256 215 204 168 154 151 151 146 148 137 144 134 132 131 126 153 159 168 182 185 187 161 143 170 144 141 145
241 366 269 324 307 339 326 345 337 295 271 257 250 257 262 287 286 224 251 239 209 199 179 163 158 146 150 148 147 141 142 132 130 128 133 136 160 167 172 183 179 164 188 198 157
239 365 265 321 302 321 323 329 330 291 274 252 259 250 255 264 280 274 271 239 218 209 200 179 170 171 156 152 147 150 149 143 139 126 122 128 129 130 133 162 172 173 173 152 192
247 310 266 328 306 296 319 323 313 301 274 261 261 254 255 254 275 269 268 255 232 209 208 206 196 181 181 165 167 146 145 142 146 140 135 127 128 132 132 132 145 157 171 178 161
248 323 314 333 312 291 298 309 318 312 275 262 256 256 247 254 272 270 260 262 233 234 225 208 208 200 181 178 198 167 157 146 145 140 144 137 130 125 127 127 126 133 142 163 178
247 333 338 323 318 302 282 297 305 303 297 271 255 252 251 249 249 268 264 259 258 230 224 233 227 206 203 192 183 173 180 185 161 158 152 142 134 136 123 131 134 129 133 139 152
324 281 319 328 309 310 295 275 289 300 298 301 266 254 250 252 255 244 249 277 258 255 231 233 233 230 241 208 207 196 191 187 183 184 169 159 155 140 90 142 134 136 131 135 139
244 296 351 331 316 303 302 295 273 282 285 294 297 274 256 249 248 256 256 244 275 272 261 247 228 234 232 243 250 230 215 207 199 195 194 186 172 164 151 130 106 142 128 128 135

GFSSW_2pvu_pres_075.txt.gz
Presure
141 145 136 133 137 144 145 134 142 132 140 183 163 193 213 127 146 134 119 121 127 132 115 116 124 120 119 123 114 129 136 110 152 146 128 127 146 132 133 153 121 160 150 120 122
131 118 162 109 117 133 142 147 136 150 135 147 179 183 208 148 134 149 125 125 133 132 136 111 128 126 112 124 122 128 127 146 116 126 141 130 139 148 135 144 140 148 150 129 134
147 144 131 135 111 110 125 142 146 137 154 137 152 171 199 213 169 153 144 121 124 128 130 125 127 125 113 117 118 120 132 112 110 111 116 139 131 145 130 147 140 135 151 151 107
219 119 231 125 134 147 112 111 137 150 144 150 145 153 184 208 174 146 153 128 129 125 127 137 126 124 120 116 127 129 128 106 149 144 131 149 134 141 130 135 123 140 148 136 115
162 131 135 130 143 149 143 125 119 123 157 144 151 146 157 199 212 170 148 147 136 131 122 112 143 124 124 126 124 129 129 133 133 108 105 143 141 143 148 128 128 134 143 149 120
223 230 164 144 144 135 189 147 128 121 123 153 148 156 150 161 201 206 164 135 144 151 124 122 119 121 117 132 117 132 128 121 137 131 122 121 153 137 120 123 123 149 134 128 144
232 221 230 241 236 227 145 138 135 140 140 119 155 148 153 153 165 201 184 162 134 153 145 124 134 135 139 142 136 130 140 116 128 103 135 117 141 116 131 137 129 169 132 143 151
226 214 222 224 232 228 235 234 130 132 217 128 123 121 142 158 153 172 201 182 169 135 135 133 140 126 117 123 133 130 139 140 123 140 135 137 142 145 157 129 117 151 131 130 143
226 228 212 227 220 232 218 237 233 174 139 198 147 128 160 122 163 155 174 203 179 171 147 135 147 124 151 140 134 124 130 136 135 125 133 127 147 143 150 129 150 148 131 133 147
245 243 229 232 228 219 234 239 251 241 205 149 194 134 137 133 118 155 157 175 206 210 169 134 151 145 142 128 130 136 127 141 134 128 124 132 143 134 138 125 141 127 131 142 134
232 241 247 230 227 233 236 214 237 234 243 280 148 239 132 141 134 119 157 147 177 206 189 176 146 131 141 133 122 133 124 138 135 131 124 119 145 132 142 147 117 156 134 131 137
252 239 235 239 233 240 225 230 234 226 242 246 290 223 145 129 137 134 119 157 149 179 206 195 184 165 146 141 141 128 138 128 139 131 143 130 146 135 137 127 142 148 116 126 122
244 238 240 234 241 236 250 260 279 311 379 330 417 341 258 190 134 138 133 120 139 151 176 207 221 191 175 154 154 134 132 143 144 132 128 133 139 133 134 150 139 144 122 151 124
234 217 224 228 243 269 353 400 399 398 388 390 398 235 288 290 234 132 140 134 122 157 152 176 210 196 185 170 153 138 139 144 134 147 140 130 133 143 133 150 130 136 144 145 118
229 230 219 242 260 414 383 404 483 447 402 393 391 370 305 173 198 183 129 142 134 125 162 151 173 197 146 142 151 157 140 144 132 152 143 138 131 131 140 129 130 124 139 140 130
230 231 238 256 407 364 360 400 408 383 380 383 383 361 324 298 150 235 218 142 150 141 129 127 134 170 191 194 150 149 153 137 135 132 134 141 139 148 133 128 137 122 131 135 133
219 236 246 336 316 343 376 376 372 360 357 380 361 337 311 318 285 178 230 188 151 146 142 134 138 123 147 184 204 153 141 146 136 146 138 143 151 136 156 138 124 122 136 124 130
240 233 256 390 340 328 361 364 351 338 363 351 346 322 305 307 276 282 153 167 168 150 142 143 135 134 130 126 177 199 206 142 141 139 154 140 143 142 152 129 147 137 145 130 131
232 236 318 366 343 332 348 340 330 325 317 331 321 307 292 291 292 266 276 213 189 166 147 153 135 137 132 134 124 160 178 201 155 141 144 154 154 143 137 140 149 132 137 152 132
231 244 288 367 334 354 336 335 345 342 331 320 304 292 281 278 282 280 269 248 218 201 155 156 150 148 137 138 130 127 123 173 187 190 172 155 157 126 142 141 143 150 146 140 146
232 246 324 361 328 327 318 362 320 319 316 296 287 275 274 272 281 285 304 268 236 213 197 147 162 147 148 139 139 133 132 127 136 153 179 187 198 200 155 148 146 145 141 149 151
229 242 350 342 327 305 323 335 341 322 294 288 285 263 265 270 273 270 300 253 251 226 213 198 163 149 160 151 148 139 136 129 121 130 157 130 173 179 181 188 185 184 170 142 143
225 262 343 337 338 303 312 327 319 314 299 288 272 262 255 263 266 269 278 298 240 248 218 214 195 175 156 153 158 147 142 135 133 126 121 138 157 131 132 171 176 181 184 186 186
227 276 343 344 329 306 294 313 315 313 292 284 275 260 263 261 263 264 278 276 232 241 252 230 210 200 180 163 166 150 143 142 140 132 93 130 127 131 135 136 131 150 169 172 180
233 268 343 345 325 322 290 295 306 302 305 285 269 253 249 255 258 259 269 284 271 220 241 250 244 209 199 178 182 162 155 155 144 141 140 127 134 133 131 138 137 137 132 133 167
227 266 343 348 329 313 308 280 292 294 307 291 272 257 244 250 249 253 254 275 279 236 221 242 247 242 214 203 196 184 177 172 160 142 146 143 141 136 127 137 140 137 141 126 135
228 241 321 328 304 320 309 310 278 293 279 297 282 264 250 242 246 245 253 250 272 281 270 223 211 245 247 218 210 206 202 190 177 173 147 139 143 144 143 140 104 138 139 135 135